ECMWFFLT1_sfc_dewp_057.txt.gz
Dewpoint
61 61 63 63 63 64 64 64 65 64 64 65 65 64 64 65 65 65 65 65 65 64 65 64 63 63 63 62 63 62 62 62 62 61 61 62 60 60 61 60 61 60 59 59 58 57 56 55 57 61 61 59 60 60 61 61 60 60 60 60 60 60 59
62 63 63 63 64 64 64 64 64 65 65 65 63 63 63 64 65 65 65 65 64 64 64 64 64 64 63 62 62 63 62 62 62 62 62 61 60 60 60 59 60 59 59 58 58 57 55 55 56 57 57 58 59 60 60 60 59 59 59 60 60 59 58
63 63 64 63 62 63 64 64 64 64 63 63 64 63 63 64 64 64 64 64 64 63 63 63 63 63 63 63 62 63 63 63 63 63 61 61 61 61 60 60 59 58 58 58 58 58 57 56 56 56 56 57 56 57 59 59 58 58 58 59 59 58 57
63 63 63 63 63 63 63 64 64 63 63 63 63 62 63 63 63 63 63 63 63 63 62 61 61 62 63 63 63 63 63 63 63 62 62 61 61 61 61 60 59 59 58 57 58 56 56 55 56 56 56 57 56 56 57 59 56 53 54 55 54 53 53
63 63 62 62 63 62 62 63 64 63 63 63 63 62 62 62 63 63 63 62 63 62 62 61 61 63 63 63 63 63 63 63 63 63 62 62 61 60 60 59 59 60 59 58 58 58 56 56 56 56 56 56 56 56 56 58 54 50 48 48 49 50 50
63 63 62 62 63 61 61 62 63 62 62 62 62 61 62 62 62 62 62 62 62 62 62 62 62 63 63 63 63 63 63 62 62 62 62 61 61 61 61 61 61 61 60 59 59 58 58 57 56 56 56 55 55 55 55 56 51 47 45 45 45 47 48
63 63 62 62 63 62 62 62 62 61 61 61 61 61 63 62 62 62 62 62 62 62 62 62 62 63 63 63 63 62 62 62 62 62 62 61 62 62 62 61 60 60 60 60 59 60 58 56 56 55 55 55 55 54 54 54 47 44 45 41 42 44 46
64 64 63 63 63 63 62 61 61 61 61 61 61 62 61 62 62 62 61 62 61 61 61 62 63 63 63 63 62 62 62 62 62 61 61 62 61 62 61 61 61 60 60 61 61 60 59 57 56 55 54 53 51 51 52 50 45 45 42 38 38 41 44
63 63 62 61 62 63 62 61 61 61 61 61 62 61 61 61 61 61 62 61 61 61 61 61 62 62 62 62 63 62 62 63 62 61 61 62 62 61 61 61 61 61 61 62 62 60 59 59 59 56 54 52 50 48 49 46 44 43 38 34 38 41 44
63 62 62 61 61 61 62 62 61 61 61 61 62 61 61 61 60 61 60 61 60 60 60 61 61 62 62 61 61 62 61 62 62 62 61 61 60 61 61 61 61 61 61 61 61 61 61 60 60 60 56 52 50 48 46 43 43 40 34 35 37 40 43
62 62 62 61 61 61 62 62 61 61 61 61 61 61 61 60 60 63 60 60 60 61 60 60 60 61 61 61 62 61 62 62 62 62 62 62 62 62 61 61 61 60 61 61 61 60 61 59 60 60 59 56 51 47 45 42 42 39 34 38 38 39 42
60 61 61 61 61 61 61 61 61 61 61 60 60 61 60 59 61 60 59 59 60 59 59 59 60 60 60 61 61 61 61 61 62 62 62 62 62 62 61 61 60 60 61 61 61 61 60 61 60 60 59 58 56 50 45 43 38 40 34 37 40 40 41
60 61 61 61 61 61 62 60 60 60 59 59 60 59 58 59 60 59 59 59 59 58 59 58 59 59 60 61 61 61 61 61 61 61 62 62 63 62 61 61 61 61 60 60 60 60 60 60 60 59 58 58 57 56 45 41 38 37 38 37 40 40 40
60 60 60 60 60 61 61 60 60 60 59 59 59 58 58 58 59 58 58 58 58 58 58 56 58 58 60 60 60 60 61 61 60 60 61 61 61 62 62 62 61 61 61 60 59 59 60 60 59 58 58 57 57 55 45 41 38 38 41 40 41 40 39
61 60 60 60 60 61 60 59 59 59 59 59 59 58 57 58 58 58 58 57 58 58 56 57 58 56 57 56 56 59 60 59 59 59 59 59 59 60 60 61 60 61 61 60 59 59 60 60 59 58 58 57 55 55 52 42 38 38 35 40 42 40 39
61 61 61 61 60 60 59 59 58 58 58 58 58 58 57 57 57 56 57 56 56 55 56 56 56 58 56 57 56 57 57 56 56 57 56 57 57 58 59 59 59 60 61 59 59 59 60 59 58 58 57 56 54 55 49 37 40 39 35 38 41 40 39
61 61 61 61 60 60 59 58 58 57 56 57 57 58 57 57 56 56 54 55 54 53 54 54 55 57 56 56 55 56 56 57 56 55 55 55 56 57 58 59 59 59 59 58 58 58 58 59 59 58 56 55 55 55 47 39 38 38 36 38 39 39 39
60 60 60 61 60 59 59 59 58 56 56 56 57 57 57 56 55 55 54 55 52 53 52 53 54 56 55 56 56 55 55 55 55 55 56 55 58 58 59 59 59 59 58 58 57 57 58 57 58 56 55 55 54 53 53 42 40 37 37 38 40 40 40
60 59 60 60 60 59 59 59 58 56 56 56 57 56 56 55 55 54 54 52 51 50 50 52 53 54 55 55 55 54 54 55 55 53 52 55 56 58 59 58 58 59 58 57 56 57 57 57 58 56 55 53 52 51 48 43 42 40 38 38 39 41 40
59 59 60 60 60 59 59 58 57 57 57 56 54 54 55 54 54 52 53 52 51 50 49 49 49 51 52 54 54 54 54 54 54 53 50 54 56 58 59 59 58 58 58 57 58 58 57 56 57 56 54 54 53 49 46 44 43 41 41 41 42 41 39
59 60 60 61 60 59 59 58 57 57 56 54 53 53 52 52 54 53 50 50 49 48 46 46 46 46 49 52 55 53 53 53 54 53 54 55 57 58 59 58 58 57 58 59 59 58 57 56 56 55 54 54 53 49 45 45 44 43 42 43 41 43 39
60 59 59 59 59 59 58 58 58 56 54 53 55 54 53 52 53 52 50 49 48 47 46 45 44 45 46 49 52 54 54 53 53 51 51 55 58 59 59 59 58 58 58 56 52 52 52 55 57 53 53 55 51 48 46 46 45 44 44 44 43 45 42
59 59 59 59 58 58 59 58 56 53 53 54 53 52 53 54 52 49 48 46 45 44 43 43 42 42 43 47 51 52 53 53 53 53 51 54 57 58 59 58 59 59 54 51 48 45 44 46 49 51 51 53 55 54 53 51 49 46 47 45 44 44 43
59 58 58 58 58 57 57 57 55 53 55 56 55 54 54 51 49 48 46 43 41 41 40 40 39 38 39 42 49 52 52 54 52 52 53 53 53 54 55 55 55 55 52 50 46 42 42 42 42 43 44 48 51 51 51 51 51 51 49 48 48 47 43
58 58 58 58 58 56 57 58 57 56 55 54 53 51 50 48 46 44 42 40 40 39 38 39 37 38 38 39 44 51 53 54 54 51 50 51 51 50 51 51 51 52 51 50 46 45 44 41 40 40 40 40 41 44 46 47 46 48 49 47 47 49 48
56 56 56 56 56 58 58 57 56 55 54 52 50 48 46 45 43 41 39 37 36 36 36 37 36 37 37 37 38 46 53 55 54 51 52 52 52 51 50 50 53 54 51 53 51 51 50 46 43 42 41 41 41 40 40 42 45 47 50 47 46 48 50
54 54 55 55 56 57 57 56 56 55 54 51 49 47 44 43 41 40 38 36 35 35 35 37 36 36 36 37 39 45 52 55 53 53 52 52 53 53 54 54 52 50 48 46 46 47 51 52 50 49 49 50 49 45 40 40 40 43 46 48 48 44 48
52 52 52 52 53 53 54 54 54 54 54 52 49 47 46 43 42 41 38 36 34 33 35 36 35 35 36 37 41 47 52 54 53 54 55 55 56 55 54 53 51 48 44 42 42 41 47 51 53 53 52 53 54 53 54 53 51 48 47 48 48 47 47
50 49 50 50 50 51 51 51 51 52 51 51 51 50 49 47 45 43 41 37 34 32 33 35 35 35 36 38 42 47 48 51 52 54 51 50 52 54 54 50 45 41 39 38 39 39 44 53 54 54 54 54 55 54 54 51 44 45 48 50 50 50 51
48 48 49 49 49 49 49 49 50 50 50 50 49 49 49 48 46 43 41 38 34 32 33 35 35 36 38 39 43 46 45 44 48 50 45 43 43 45 44 42 40 38 37 36 37 37 40 45 46 46 48 49 51 53 50 47 44 42 42 42 42 43 44
46 47 47 47 48 48 49 49 49 49 49 48 48 48 48 48 47 43 40 37 34 32 33 36 35 36 38 39 41 42 41 41 41 46 45 42 40 41 42 45 43 37 37 38 36 36 37 40 41 42 43 44 44 49 47 44 42 43 41 40 40 41 42
46 46 46 47 47 47 48 48 49 49 49 48 47 48 48 49 48 46 42 39 39 34 34 37 36 35 36 37 38 35 36 37 39 40 44 43 40 38 37 39 41 40 38 37 35 36 36 38 39 41 43 41 41 42 44 42 41 41 42 41 40 44 43
46 46 46 46 47 47 48 48 49 49 49 49 48 48 48 48 47 47 45 43 39 37 36 37 37 36 36 36 37 35 36 37 39 40 41 44 42 39 38 37 39 35 35 35 35 35 36 36 38 41 42 40 38 35 42 41 42 43 43 43 44 45 45
45 46 46 47 47 47 48 48 48 48 48 48 48 48 48 48 46 45 45 43 41 39 39 37 37 36 37 37 37 37 39 40 41 40 38 40 44 42 40 38 38 37 35 35 35 35 36 36 37 40 40 38 40 41 40 40 41 42 42 43 44 43 42
46 46 47 47 46 46 47 48 48 48 48 47 47 47 47 47 46 45 45 42 41 42 41 40 37 36 36 36 36 37 38 37 38 38 38 39 39 39 39 39 39 37 36 36 36 36 35 35 36 39 38 37 37 37 40 41 41 42 43 43 42 42 43
45 46 45 46 45 46 46 47 47 47 47 47 47 47 47 47 46 44 42 40 39 39 39 40 39 39 36 36 36 36 36 36 36 40 40 39 39 38 39 39 39 38 36 36 36 36 36 36 37 36 36 35 35 34 36 40 40 42 41 42 41 42 41
44 44 44 45 45 44 45 45 45 46 45 45 46 47 47 47 47 45 42 39 39 38 38 38 38 37 37 36 36 36 36 35 35 38 40 39 39 39 38 38 38 36 36 36 36 36 36 37 36 36 36 36 35 35 38 39 39 40 39 40 40 41 42

ECMWFFLT1_sfc_dewp_060.txt.gz
Dewpoint
62 62 63 63 63 64 64 63 64 65 64 64 64 63 63 64 64 64 64 65 64 64 64 63 63 62 62 62 63 62 62 61 61 60 60 60 59 58 60 58 58 58 58 56 57 56 55 55 57 60 60 59 59 59 60 60 60 60 60 60 61 59 57
63 63 63 64 64 64 63 63 64 64 64 64 64 63 63 64 65 64 64 64 64 64 64 63 63 62 62 62 62 62 61 61 61 61 61 60 59 58 59 57 57 57 57 56 57 55 56 56 56 57 57 58 57 57 58 59 59 60 60 60 60 58 57
62 62 63 63 63 64 63 63 64 63 64 64 63 63 63 64 64 64 64 64 64 64 64 63 63 62 62 61 62 62 61 61 61 61 61 61 60 60 60 59 57 56 56 56 55 55 56 57 56 56 57 57 56 55 57 58 58 59 60 60 59 57 56
62 61 62 62 63 63 63 63 64 63 63 63 63 63 63 64 64 64 64 64 64 64 64 63 63 62 62 61 62 62 61 61 62 61 60 61 60 60 59 59 58 58 57 55 56 55 55 54 56 57 57 57 55 54 56 58 58 59 59 59 58 57 55
61 61 61 61 62 62 63 63 63 62 61 62 62 62 63 63 64 63 63 63 63 63 63 62 62 62 62 61 62 62 62 62 62 61 60 60 60 60 59 59 59 59 57 56 57 57 56 55 56 56 56 57 55 55 57 57 57 58 58 58 56 55 54
62 61 61 61 61 62 62 63 63 61 62 61 62 62 62 62 63 62 62 61 62 62 62 61 62 62 62 61 62 62 62 62 61 61 60 60 60 60 60 59 59 59 58 57 58 57 56 57 57 56 56 55 54 54 55 56 50 54 56 54 52 53 53
62 62 62 61 61 61 62 63 62 61 61 61 61 61 62 62 62 62 62 62 62 62 62 61 62 63 62 62 62 62 62 61 61 61 60 60 60 60 59 59 59 59 58 59 59 57 57 56 56 56 55 54 54 54 54 54 47 46 45 48 51 51 51
62 61 62 62 62 62 62 63 62 62 62 61 61 61 62 62 61 61 61 61 61 61 61 62 62 63 63 62 62 62 62 61 61 61 60 60 60 60 59 60 60 60 59 59 59 58 57 57 57 56 55 53 52 52 53 53 45 45 43 40 45 48 50
61 62 61 61 62 62 62 62 62 62 61 62 61 62 61 61 61 61 61 61 61 61 61 62 62 62 62 62 62 61 61 62 61 60 60 60 60 60 60 59 60 60 59 60 60 59 57 57 57 57 56 54 53 51 50 51 45 44 41 39 40 44 47
62 62 62 62 63 62 62 62 62 62 62 61 61 61 61 61 61 61 61 60 60 61 61 62 62 62 61 62 61 60 61 61 61 61 60 60 60 60 59 60 60 60 59 60 60 59 58 58 58 57 56 54 53 52 51 50 46 40 37 37 39 40 45
61 62 62 62 62 62 62 62 61 61 61 61 61 61 61 60 60 63 60 60 60 60 61 61 61 61 61 60 60 60 60 61 61 60 61 60 60 60 60 60 59 59 59 60 59 59 59 58 58 56 55 54 53 52 51 50 47 41 37 37 39 40 44
60 61 61 61 61 62 61 61 61 60 61 61 60 60 60 59 60 60 60 59 59 59 60 60 61 61 60 60 60 60 60 60 60 60 60 60 60 60 60 59 58 59 59 59 59 59 59 59 58 58 56 54 51 51 50 49 45 42 38 37 38 41 43
61 60 61 61 61 61 62 61 61 60 61 60 60 60 59 59 59 59 59 59 59 59 59 59 60 60 60 60 60 59 59 60 60 60 60 60 61 60 60 59 59 59 59 59 59 59 59 59 59 59 58 54 52 50 47 47 44 39 38 38 40 41 43
61 61 61 61 60 59 60 61 61 60 60 60 60 59 59 59 59 58 58 58 58 57 58 58 59 59 59 59 60 60 60 60 60 60 60 60 61 60 60 60 59 59 59 59 59 59 59 59 59 59 58 57 55 52 46 44 41 38 38 43 43 41 43
60 60 60 60 59 60 61 62 61 60 59 59 59 58 59 59 58 58 58 57 57 57 56 58 58 59 59 59 58 60 60 60 60 60 60 60 60 61 60 60 60 59 60 59 58 59 60 59 59 58 57 55 55 55 46 43 39 36 35 41 41 41 42
60 60 60 59 60 61 61 62 61 59 59 59 58 58 59 58 58 58 57 57 57 56 56 57 58 58 58 58 58 58 59 59 59 58 59 60 60 60 59 60 59 59 60 58 58 58 59 59 58 58 56 56 55 54 47 40 38 36 36 40 42 39 40
61 60 60 59 60 61 61 61 61 60 59 58 57 57 58 58 58 57 57 57 56 55 55 56 57 57 57 57 57 57 58 58 58 58 58 58 58 58 59 58 58 59 59 58 57 57 58 58 58 57 57 56 53 54 49 39 37 37 38 39 41 38 39
60 60 59 59 60 60 60 61 61 59 59 58 57 57 57 57 57 57 57 56 54 54 54 55 56 56 56 56 55 56 57 56 57 57 57 57 59 58 58 58 58 59 58 58 56 56 57 57 58 57 56 54 54 54 50 41 38 37 38 38 41 41 41
60 59 58 59 60 60 60 60 61 59 58 58 57 56 56 56 56 55 55 54 53 52 52 53 55 55 55 55 55 54 55 55 55 55 55 56 57 58 58 57 58 58 58 58 57 56 57 57 57 56 55 54 54 53 50 42 40 38 37 38 40 41 40
60 59 59 59 60 60 60 60 60 59 59 58 56 56 55 55 55 54 53 51 50 49 49 49 51 52 53 54 54 53 54 54 53 53 54 56 57 58 57 57 57 57 57 57 57 56 56 55 56 55 54 54 52 51 49 42 40 37 38 39 40 40 40
59 59 59 59 60 60 60 60 60 59 59 57 55 55 54 53 52 50 49 48 48 48 47 47 47 49 51 53 53 53 53 53 53 54 55 57 57 57 57 57 56 56 56 56 57 56 56 56 55 55 54 54 53 50 48 44 41 38 38 40 39 39 40
59 59 59 59 59 59 60 60 59 59 58 56 55 53 52 50 49 48 47 46 46 46 45 45 45 46 49 51 52 53 52 52 53 55 56 56 56 56 55 55 55 55 57 59 56 55 56 56 56 55 53 53 53 49 46 44 42 41 40 39 40 41 40
59 59 58 59 59 58 59 59 58 57 54 53 52 51 49 48 46 45 44 43 43 43 43 43 43 43 45 48 51 52 52 52 52 54 56 56 56 56 56 55 56 59 56 53 49 46 48 51 53 54 53 54 52 48 46 44 42 41 41 40 40 41 39
59 58 58 59 58 58 58 58 57 56 54 53 51 49 47 45 44 43 42 41 41 40 41 40 39 38 40 45 51 52 52 52 52 54 56 56 56 56 55 54 52 54 50 49 46 43 42 43 44 46 48 51 52 50 49 47 45 45 44 42 44 43 41
58 58 58 58 57 57 57 56 56 54 52 49 48 46 44 43 42 41 40 38 38 39 38 39 37 38 38 42 49 53 53 52 51 53 55 55 55 54 52 51 51 52 52 53 51 47 47 44 41 40 41 41 40 40 42 49 49 48 48 48 47 45 43
57 57 57 57 57 57 56 55 54 52 48 46 44 43 41 40 39 39 37 36 36 36 36 38 37 38 39 42 47 51 53 52 51 51 52 52 51 51 51 50 48 47 46 50 49 49 50 46 45 43 42 44 45 43 41 41 43 49 48 47 47 47 47
56 56 56 56 56 56 54 53 52 51 47 44 42 41 41 40 40 38 35 34 34 35 37 38 37 39 41 43 46 49 54 54 53 53 53 52 52 52 50 48 45 42 41 43 44 47 50 51 50 53 53 53 52 48 45 44 44 45 47 48 46 46 48
53 55 55 55 54 53 52 51 50 49 47 44 43 42 42 40 38 37 34 33 34 35 38 38 38 39 41 42 45 49 52 51 50 50 50 51 49 47 45 42 39 38 38 40 42 46 51 52 52 53 53 52 51 48 45 44 45 45 46 48 49 49 49
49 51 52 52 51 51 51 50 49 49 48 47 46 45 43 41 38 36 35 33 33 34 36 37 38 39 41 43 46 50 48 46 44 43 43 42 41 41 40 39 38 37 37 38 39 39 43 46 45 46 48 50 50 48 45 45 41 42 44 44 46 46 47
47 49 49 49 49 49 49 48 48 49 48 47 46 45 43 41 39 36 34 33 32 33 35 36 36 37 39 41 44 47 45 42 41 40 40 40 41 41 39 38 37 36 35 35 37 37 38 41 41 41 41 42 43 42 40 41 39 39 39 39 39 40 40
46 47 48 48 48 48 48 48 46 47 47 46 45 44 42 39 38 37 35 34 34 34 36 37 36 36 36 38 43 45 44 42 40 38 37 37 38 39 41 43 41 35 34 36 36 36 37 39 38 39 38 36 35 37 38 39 40 41 40 39 39 40 40
46 46 47 47 48 47 47 48 48 48 48 47 45 44 42 40 40 39 38 39 41 37 37 38 37 36 36 37 41 43 44 42 40 39 38 37 38 38 38 39 41 39 38 37 35 35 36 38 39 39 38 34 34 36 39 39 40 40 41 41 42 43 42
45 45 46 47 47 47 48 48 48 48 48 47 46 45 44 41 40 41 40 39 39 38 38 38 38 37 37 37 38 41 43 43 42 42 41 39 39 38 38 38 40 36 35 35 35 35 35 36 37 38 37 36 36 36 39 39 41 41 41 42 42 43 43
45 45 46 46 47 47 47 47 47 47 47 46 45 44 44 43 42 42 42 42 41 40 40 38 38 37 37 37 38 39 41 42 43 42 40 39 39 39 38 38 39 37 36 36 36 35 36 36 37 38 38 38 39 40 39 39 41 42 41 41 42 42 43
45 45 45 45 45 46 46 47 47 47 47 46 44 44 43 43 43 43 43 43 42 42 43 42 41 38 37 37 37 38 40 40 41 41 41 39 39 39 39 38 39 37 36 36 36 36 36 36 37 39 36 35 34 35 39 40 41 41 41 41 41 41 42
44 44 44 44 44 44 45 45 46 46 46 46 44 43 43 43 42 42 42 43 43 42 42 42 39 40 37 37 37 37 37 39 38 42 40 39 39 39 38 38 39 38 36 36 36 36 37 37 37 36 35 35 33 33 37 39 39 40 39 39 40 40 40
43 43 43 43 43 43 44 44 44 45 45 46 45 44 43 43 43 42 42 42 42 42 42 42 39 38 38 37 37 37 36 36 37 39 39 38 38 38 38 38 38 36 36 36 36 36 36 36 36 36 36 35 36 37 39 40 39 39 38 38 39 39 40

ECMWFFLT1_sfc_dewp_063.txt.gz
Dewpoint
61 61 62 63 63 64 64 64 64 64 65 65 64 64 64 64 63 63 64 64 64 63 63 63 62 62 62 61 62 62 62 61 60 59 59 59 59 58 59 57 57 57 57 55 56 55 55 55 56 60 60 59 58 59 60 59 59 59 60 60 60 58 58
61 61 63 63 63 64 63 63 64 64 64 64 64 64 64 63 64 63 64 64 64 63 64 63 62 62 62 62 62 61 61 61 61 60 60 59 59 58 58 54 56 56 55 55 56 53 54 55 56 57 57 59 57 57 57 57 59 59 60 60 59 57 57
61 61 63 63 63 63 63 63 63 64 63 63 62 63 63 63 63 63 64 64 64 64 64 62 62 62 62 62 62 61 61 61 61 61 60 60 60 58 59 56 55 54 54 54 54 53 55 56 56 56 57 57 56 57 56 56 58 59 60 59 58 57 56
60 61 61 62 62 62 62 62 62 62 62 62 62 62 63 63 63 63 64 64 64 64 64 62 62 62 61 62 62 61 61 61 61 60 59 59 60 59 58 57 57 57 56 54 55 54 53 53 55 56 57 58 57 56 56 56 58 59 60 58 57 56 55
61 60 61 61 62 62 62 61 62 62 62 62 62 63 63 63 63 63 64 64 64 63 63 63 62 62 62 61 62 61 61 61 61 60 60 59 59 59 58 57 57 57 55 55 56 56 55 55 55 56 57 57 56 54 56 56 57 58 59 58 57 56 55
61 60 60 61 61 62 62 62 61 61 61 61 61 61 62 62 63 62 62 62 63 63 63 62 62 62 61 61 61 61 61 61 61 60 60 59 60 59 59 57 57 57 56 55 57 56 54 55 56 56 57 57 54 54 55 55 52 57 58 58 56 55 54
61 61 61 61 61 62 62 62 62 61 61 61 61 61 61 62 62 62 62 62 63 63 62 62 62 62 62 61 61 61 61 61 61 60 60 59 59 59 59 58 58 58 56 57 57 56 56 56 55 56 56 55 52 54 54 53 49 54 51 53 53 54 53
61 61 61 61 61 61 61 62 62 62 61 61 61 61 62 62 62 62 62 62 62 62 62 62 62 62 62 61 61 61 61 61 61 60 59 59 59 59 58 59 58 58 57 57 57 57 57 56 56 56 56 54 52 52 52 51 47 53 52 43 50 51 52
60 61 61 60 60 61 61 62 62 62 62 61 61 61 62 62 62 62 62 61 61 61 61 61 61 62 61 61 61 61 61 61 60 60 59 59 59 59 58 58 58 58 58 58 58 57 57 57 57 57 56 55 53 51 50 50 46 48 45 47 43 48 50
61 61 61 61 61 61 61 62 63 62 62 62 61 62 62 62 62 62 61 60 60 61 61 61 62 62 61 61 61 60 60 60 60 60 59 59 59 59 58 58 59 59 58 58 58 57 57 57 57 57 56 55 54 53 51 51 47 45 40 41 48 45 48
61 61 61 61 61 61 61 61 62 61 61 61 61 61 61 61 61 63 61 60 60 60 61 61 61 61 61 61 60 60 60 60 60 59 59 59 58 59 58 58 57 57 58 58 58 57 57 57 57 57 56 55 54 53 52 52 50 44 42 41 42 44 46
60 61 61 60 60 61 61 61 61 61 61 61 61 60 60 60 61 61 60 59 59 60 60 61 61 61 61 60 59 59 59 60 60 59 59 59 58 59 58 58 56 57 58 58 58 57 57 57 57 57 56 54 54 52 53 51 49 48 42 43 40 41 44
61 60 60 60 60 60 61 61 61 61 61 61 61 61 60 60 60 60 60 59 59 60 60 60 60 60 60 60 59 59 59 59 59 59 58 58 60 59 59 58 58 58 58 58 58 58 57 57 57 56 56 54 53 52 52 50 49 48 43 43 42 40 44
61 61 60 60 60 61 61 61 61 61 61 61 61 60 60 59 60 60 59 59 59 59 59 59 59 60 59 59 59 59 59 59 59 58 59 58 59 59 59 59 58 58 58 58 58 58 58 57 57 56 56 54 53 50 50 48 48 43 38 43 43 42 44
61 61 60 60 60 60 61 61 60 61 61 61 61 61 60 59 59 59 59 59 58 59 59 59 59 59 59 58 58 58 59 59 59 59 58 59 59 59 58 58 59 58 58 59 58 58 58 57 58 57 56 55 53 51 49 48 47 42 38 40 41 43 44
61 61 59 60 60 60 60 60 61 61 61 60 60 60 60 59 59 59 59 58 58 58 58 59 59 59 59 58 58 58 59 59 59 59 59 59 59 59 58 58 58 58 58 57 57 57 57 58 58 58 57 55 55 53 50 47 46 42 39 39 42 41 42
61 61 59 59 60 60 60 61 61 61 61 60 60 60 60 59 58 58 58 57 57 57 57 58 58 59 59 58 58 58 58 59 59 59 59 59 59 59 59 58 58 58 58 58 57 56 57 57 57 57 57 55 55 55 53 47 45 45 40 39 40 39 41
61 61 59 59 60 60 60 60 61 61 61 60 59 59 60 59 57 58 57 57 56 56 57 58 58 58 58 58 58 58 58 58 58 58 58 59 60 59 58 59 58 58 58 57 55 56 56 57 57 57 57 57 56 55 54 48 44 41 40 39 40 41 41
61 60 59 59 59 60 60 60 60 61 60 60 59 59 59 58 57 57 57 56 55 55 55 57 57 57 56 56 56 57 57 57 57 57 57 57 58 58 58 58 58 58 58 58 57 56 56 57 57 56 56 56 56 55 52 45 42 39 39 39 40 40 40
60 60 59 59 59 60 60 60 60 60 60 59 59 59 59 58 57 57 56 54 53 53 54 55 55 55 55 54 55 54 55 56 55 55 56 56 57 57 57 57 57 58 58 58 57 56 56 56 57 56 56 56 56 54 48 42 39 38 38 39 40 40 40
59 60 60 60 59 59 59 59 60 60 60 59 59 58 58 57 55 53 51 50 50 50 50 50 50 51 53 54 53 53 54 54 54 53 54 55 56 57 57 56 56 57 57 58 57 56 56 56 56 55 54 55 55 54 50 44 41 38 39 40 40 40 40
58 60 60 60 59 59 59 59 59 59 59 59 58 58 56 54 51 48 48 47 47 47 48 47 47 49 52 51 52 53 53 53 53 53 53 53 54 54 54 54 54 53 56 58 52 53 55 56 56 55 54 53 54 55 54 48 43 39 40 40 40 41 40
59 59 59 59 59 59 59 58 58 59 58 57 56 55 53 52 49 47 46 45 45 46 45 45 45 45 47 51 51 52 52 52 53 54 55 54 54 55 54 54 55 53 52 51 48 45 47 50 51 54 55 55 54 54 54 51 46 41 40 39 39 40 39
58 58 58 59 59 59 58 58 58 58 57 55 54 53 53 51 48 46 44 44 43 43 42 42 40 39 43 48 51 51 52 52 52 54 55 55 54 53 51 50 50 53 51 51 47 42 41 40 40 42 47 52 53 53 51 48 46 45 41 39 40 40 39
55 58 58 58 58 58 58 58 57 57 55 53 53 51 50 48 46 44 43 42 41 40 41 41 38 39 42 46 49 51 52 53 53 53 54 54 53 51 49 48 47 49 50 52 50 48 44 42 42 42 42 41 41 41 43 46 45 42 42 41 41 40 40
51 57 58 58 58 58 58 57 56 53 52 52 50 47 45 45 44 43 42 40 39 40 40 40 38 41 43 46 46 49 51 52 52 52 53 52 51 49 48 46 45 45 45 52 51 48 47 48 46 44 43 42 41 40 40 41 43 47 45 43 43 45 43
49 51 57 57 56 57 56 55 53 51 50 49 47 43 42 41 41 41 41 41 41 41 41 40 40 42 44 44 45 48 52 52 52 52 51 50 49 47 45 44 43 43 43 46 47 50 51 51 51 49 46 44 42 42 40 40 40 43 46 48 48 48 47
47 49 50 54 56 55 53 50 49 48 48 47 46 42 39 38 38 39 40 41 41 40 39 38 41 43 44 44 45 47 50 49 47 46 44 43 42 40 40 40 39 39 40 42 45 50 52 52 51 48 44 42 41 41 42 41 42 43 43 46 46 47 48
46 47 48 49 50 50 49 47 46 47 46 45 44 43 39 38 38 38 40 40 40 39 38 38 41 43 43 43 43 47 45 44 42 41 40 39 39 39 39 38 37 37 38 39 40 42 47 50 49 46 43 42 39 39 41 42 40 41 44 44 45 45 46
46 46 47 47 47 47 47 46 46 46 44 44 43 42 38 37 37 37 38 39 39 39 39 38 39 41 41 41 43 43 42 41 40 39 39 40 40 40 39 36 35 35 35 36 37 37 39 41 42 41 41 39 39 37 39 41 39 38 39 39 39 40 40
45 45 46 46 47 47 46 46 45 45 43 42 41 41 40 38 38 38 37 38 39 39 39 39 38 39 41 41 43 42 40 38 37 36 37 37 38 39 42 43 40 35 34 36 36 36 37 38 36 36 36 35 35 36 38 40 41 41 39 40 39 40 40
45 45 45 45 47 47 46 45 44 44 43 43 42 42 43 41 40 39 39 39 41 38 39 39 38 38 39 41 42 41 39 38 37 36 37 37 38 38 38 40 41 39 37 37 35 36 36 38 36 35 35 35 36 37 38 39 40 41 41 42 43 43 43
45 45 45 45 46 47 46 45 44 44 44 44 43 43 43 43 42 42 42 41 40 39 38 38 39 38 39 39 41 43 41 39 38 38 37 37 38 38 39 38 39 36 36 35 35 36 36 37 38 38 37 36 36 37 39 41 42 41 41 42 41 42 42
44 45 46 46 46 46 46 45 44 44 44 44 43 43 43 43 42 42 42 42 42 42 41 39 39 38 38 39 39 41 42 40 39 38 38 38 38 38 39 38 38 37 36 36 36 36 37 37 38 39 39 38 39 40 39 41 41 42 42 42 42 41 41
44 44 45 46 45 45 46 46 45 44 44 43 42 42 42 42 42 42 42 42 41 41 42 42 40 38 37 38 38 39 41 41 40 39 38 38 38 39 39 38 38 37 36 36 36 37 37 37 37 39 35 34 34 37 41 41 40 42 42 41 41 41 41
42 43 43 44 44 44 45 45 45 45 44 43 43 42 42 42 41 41 41 41 41 41 41 41 39 38 37 36 36 37 37 38 38 41 37 38 39 39 39 39 40 38 36 36 36 37 37 37 38 36 35 36 36 37 39 41 41 41 41 41 41 41 41
41 42 42 43 44 44 44 44 45 45 44 43 43 42 42 42 41 40 40 40 40 41 41 41 39 37 37 36 36 36 36 36 37 39 39 38 38 41 39 39 38 36 36 36 36 36 36 36 36 36 36 37 37 38 41 41 40 40 39 39 40 40 40

ECMWFFLT1_sfc_dewp_069.txt.gz
Dewpoint
63 63 63 63 64 64 64 64 64 65 65 66 66 65 66 66 65 65 65 66 66 65 65 65 65 65 64 65 65 65 64 63 63 62 61 61 60 60 61 61 62 62 61 62 59 55 54 55 57 61 62 62 62 62 62 62 62 62 62 62 61 61 60
63 64 63 63 63 64 64 64 64 65 65 65 65 65 65 65 66 66 65 65 66 66 65 64 66 65 65 63 63 63 63 63 64 64 62 61 61 61 60 60 61 60 60 61 61 60 55 54 54 56 58 61 62 62 62 62 62 62 62 62 61 60 60
63 64 63 63 63 63 64 64 64 64 64 65 65 65 65 65 65 65 65 65 65 65 65 66 65 64 64 64 63 63 63 63 65 64 63 62 62 62 61 60 59 60 60 59 59 58 58 58 53 53 56 57 57 59 61 61 61 61 61 62 62 60 60
63 62 62 62 62 63 63 63 64 64 64 65 65 65 64 65 64 64 65 65 65 65 65 65 65 65 64 64 64 64 64 64 63 63 63 63 63 63 62 61 60 59 58 58 58 58 58 57 55 55 55 56 55 57 59 60 60 60 61 61 61 61 60
62 61 61 61 62 62 63 63 63 63 63 64 64 65 65 65 64 65 65 65 65 65 65 65 65 65 65 64 64 64 63 65 65 63 63 63 63 62 62 61 61 61 61 60 60 59 59 57 57 55 55 55 54 54 57 61 60 59 60 60 60 60 60
63 63 62 63 63 63 64 64 63 63 63 62 63 63 64 64 65 64 64 64 64 65 65 64 64 64 65 65 64 63 64 63 63 63 63 63 63 62 62 62 62 62 61 61 61 60 59 60 58 54 53 55 55 54 56 58 57 59 60 60 59 59 59
62 62 62 62 63 64 64 64 63 63 62 63 63 63 64 64 64 65 65 65 64 64 65 64 64 64 64 64 64 63 63 63 63 64 63 64 64 64 64 62 62 61 62 62 61 61 60 59 57 56 55 55 56 53 55 57 57 57 58 59 60 59 59
63 62 62 63 63 64 64 63 63 63 62 62 63 65 63 64 64 64 65 65 65 64 64 64 64 64 63 63 63 62 63 64 63 62 63 64 64 63 63 62 62 62 61 60 61 60 59 59 58 58 56 55 55 54 54 55 56 56 55 57 59 59 59
62 63 63 63 64 64 63 63 63 63 63 63 64 64 63 63 64 64 64 64 64 64 64 64 64 63 63 63 63 63 63 62 64 64 64 64 64 64 64 63 63 61 62 62 61 60 59 59 60 59 58 56 53 52 54 55 55 54 56 55 56 58 57
62 62 63 63 63 64 64 63 64 63 63 63 63 64 63 63 63 63 64 64 64 64 64 64 64 63 63 63 63 63 63 63 63 64 64 63 63 64 64 63 63 63 63 63 61 61 61 61 60 60 58 57 56 54 52 52 54 54 55 55 53 55 56
61 62 62 62 63 63 63 63 63 63 63 63 63 63 63 63 62 63 63 64 64 63 64 64 63 63 63 63 63 63 63 64 64 64 64 63 63 63 63 62 63 63 62 62 62 63 62 61 60 60 59 58 58 55 55 53 54 55 54 56 56 54 57
61 61 62 62 63 62 62 63 62 63 63 63 63 63 63 63 63 63 63 63 63 63 63 64 63 63 63 63 63 63 64 63 63 63 63 63 63 62 62 63 63 63 64 63 63 63 62 62 60 59 59 59 59 59 57 55 54 57 56 56 56 55 55
60 61 61 61 62 62 62 62 62 63 63 63 63 63 63 63 63 63 64 64 63 63 63 63 63 63 63 63 63 63 64 63 62 62 62 62 61 62 62 63 63 63 63 63 63 63 61 61 61 60 60 60 59 59 59 57 54 56 57 55 56 54 54
61 61 61 62 61 62 62 62 62 63 62 62 63 63 63 62 62 62 62 63 62 62 62 62 63 63 62 63 62 63 62 62 62 62 62 61 62 62 62 62 63 63 64 63 62 62 61 60 61 61 60 59 59 60 58 58 56 55 54 53 55 53 53
58 60 61 62 62 61 61 62 62 62 62 62 63 62 62 63 62 62 62 62 62 62 62 62 62 62 62 62 62 63 62 62 61 62 63 62 62 62 64 62 62 63 63 62 62 60 60 60 59 59 59 60 58 59 59 57 56 54 54 52 50 49 51
56 58 59 62 62 62 62 62 62 62 62 63 63 62 62 62 62 62 62 62 61 61 61 61 62 62 61 61 62 62 63 62 62 63 63 62 62 62 63 63 63 63 63 62 62 62 62 60 59 58 60 59 59 59 57 57 57 56 55 51 52 48 50
54 55 56 59 60 61 62 62 62 62 62 62 62 63 62 62 62 62 61 61 61 61 61 61 61 61 61 61 61 61 62 63 63 63 63 62 61 62 62 63 63 64 62 62 62 63 62 62 62 60 60 60 60 59 59 59 58 57 56 52 49 46 48
51 52 53 55 57 59 61 62 63 61 62 62 62 62 62 62 61 61 61 61 60 61 61 61 61 61 62 62 62 62 63 62 63 63 63 63 63 62 63 63 63 62 62 62 63 61 61 62 60 61 60 59 59 59 59 58 57 57 56 55 52 47 48
50 51 52 53 54 57 59 61 61 62 62 61 62 62 62 62 61 61 61 61 60 60 61 61 61 61 62 62 63 63 63 63 63 63 63 63 63 63 63 62 63 62 62 62 62 61 62 62 61 61 60 60 58 59 59 58 58 57 55 55 55 49 48
49 50 51 52 53 55 58 60 60 61 61 61 61 61 61 61 61 61 61 61 61 61 60 61 61 61 62 62 62 62 63 63 63 63 62 60 61 62 63 62 63 63 63 63 63 62 62 63 62 62 61 62 60 59 60 58 56 56 56 55 54 53 49
48 49 50 51 52 54 57 59 60 60 61 61 61 61 61 61 61 61 61 60 61 61 61 61 61 61 61 61 62 62 62 63 62 63 62 61 61 62 63 63 64 63 63 63 64 64 63 63 62 62 63 62 61 61 60 59 57 55 55 55 54 52 51
48 48 49 50 51 52 55 58 60 60 60 61 61 61 61 61 61 60 60 61 60 60 60 60 61 61 61 61 61 62 62 62 62 62 62 61 61 62 61 62 62 62 63 64 60 60 60 60 63 62 62 62 62 62 61 59 58 57 56 55 54 53 50
46 47 48 49 50 51 53 56 58 59 60 60 60 61 60 61 60 60 60 60 60 60 60 60 58 54 56 60 61 61 62 62 62 62 61 61 61 61 60 61 62 61 59 57 55 53 52 53 56 61 63 63 62 61 61 59 58 57 56 55 55 52 50
46 46 47 48 49 49 51 55 58 59 60 60 60 61 61 60 60 60 60 59 59 59 59 58 51 48 50 52 59 61 61 62 62 61 61 61 60 60 60 60 61 58 57 56 57 48 48 48 48 51 54 56 58 62 61 60 59 58 56 56 55 53 55
45 45 46 46 47 48 49 50 52 55 59 60 60 61 61 60 60 60 60 59 59 59 59 51 46 47 47 48 53 60 61 61 62 61 61 60 60 59 59 59 59 58 59 59 58 56 51 46 46 44 44 45 46 46 45 59 60 58 57 55 51 49 52
44 44 45 45 46 46 47 47 48 49 51 56 60 59 59 59 59 59 59 58 58 58 56 44 43 45 46 46 48 55 59 60 60 60 60 60 58 58 58 57 57 57 52 53 55 56 55 51 42 41 42 42 42 40 39 42 43 58 56 54 52 52 49
44 44 44 44 44 44 45 45 47 48 49 50 53 57 58 58 57 56 57 56 57 55 52 42 40 42 43 44 45 51 58 59 59 59 59 59 58 57 57 56 55 55 55 54 55 55 54 53 52 52 52 52 51 48 45 44 43 43 50 54 53 52 54
44 43 43 43 44 43 44 44 45 45 46 46 46 48 50 52 53 53 53 53 52 51 48 40 40 41 42 43 45 51 58 58 57 57 57 57 57 57 57 56 56 55 55 54 54 53 53 52 51 50 50 49 49 49 49 50 53 54 54 56 56 57 55
44 43 43 43 43 43 43 44 44 45 45 45 45 45 46 47 48 48 49 50 49 48 47 39 40 41 42 44 46 53 54 53 52 52 52 52 53 54 55 55 55 55 54 53 47 43 46 49 49 48 48 48 48 48 46 43 41 44 53 54 53 52 50
43 43 42 42 42 42 43 43 44 44 44 44 44 44 44 44 45 46 47 47 46 45 44 40 40 41 42 43 47 50 49 47 47 48 47 47 48 50 52 53 54 54 53 50 43 39 40 44 48 47 48 49 49 48 47 46 41 40 40 40 40 40 40
43 43 42 42 42 42 43 43 43 43 43 43 43 43 44 44 44 45 45 45 44 44 43 41 39 40 42 43 46 47 46 45 44 44 44 45 46 47 47 46 50 54 53 48 38 38 39 45 47 48 48 48 48 47 47 47 46 44 40 40 40 40 40
44 43 42 43 43 43 43 42 43 43 43 43 42 43 43 43 43 43 44 44 44 43 42 41 38 38 39 41 46 46 43 42 41 41 41 42 42 43 43 42 43 46 49 45 38 38 39 45 48 48 47 47 46 46 46 47 46 46 46 46 46 45 46
44 44 44 43 43 43 43 43 43 43 43 43 43 44 43 42 42 42 42 42 42 42 41 41 40 38 38 38 39 46 43 42 40 40 40 40 41 42 42 41 40 36 36 36 36 36 37 41 47 47 47 46 45 45 46 46 46 45 44 44 44 45 45
43 43 44 44 44 43 43 43 43 43 43 43 43 43 43 42 42 41 42 42 42 41 41 41 40 37 38 38 39 42 42 41 40 40 40 41 41 41 41 40 40 38 36 36 36 36 37 38 41 49 49 47 47 46 43 44 44 42 44 44 43 42 42
43 43 44 44 44 44 44 43 43 43 43 43 42 41 42 42 42 41 41 41 41 41 42 41 41 38 38 38 38 39 44 44 43 41 40 40 40 40 40 40 39 38 37 37 37 37 38 38 39 44 44 39 39 40 45 45 44 43 42 42 40 39 40
42 43 43 44 44 43 43 43 43 43 42 42 42 41 41 41 41 41 40 41 41 41 41 41 39 40 37 37 38 38 39 42 39 44 41 40 40 40 40 39 39 37 36 37 37 38 38 39 40 41 38 38 39 39 41 43 42 43 42 41 42 42 41
41 41 43 44 44 44 44 43 43 42 43 42 42 41 41 41 40 40 40 40 41 41 41 41 40 38 38 37 37 37 37 38 39 43 43 42 41 40 39 39 37 35 36 36 36 36 36 38 38 37 38 38 39 40 43 44 42 43 42 42 41 42 41

ECMWFFLT1_sfc_dewp_072.txt.gz
Dewpoint
66 65 66 66 66 65 65 65 66 66 66 65 65 65 66 66 66 66 66 66 66 65 67 67 68 67 66 66 66 66 66 65 63 63 63 62 62 60 63 64 63 62 61 62 61 58 55 55 57 61 62 63 63 63 62 61 60 61 64 63 61 61 61
66 64 64 64 64 64 65 65 66 65 66 67 67 66 66 66 66 65 66 66 65 66 65 67 67 67 66 66 67 67 67 64 65 65 64 63 62 63 61 62 62 60 60 61 62 61 56 54 54 57 59 62 63 63 64 63 61 63 63 62 61 60 60
64 64 64 63 63 64 64 64 65 65 65 67 67 65 66 65 65 65 66 65 65 66 66 66 65 65 65 66 66 65 67 66 67 65 63 64 63 64 62 62 61 60 60 59 60 60 59 58 55 54 58 60 60 61 64 63 63 62 61 62 62 59 59
64 63 63 63 62 63 64 64 65 64 64 65 66 67 66 66 65 65 66 66 66 66 65 65 65 66 65 65 66 66 65 66 64 64 63 64 65 64 64 61 60 60 59 59 59 60 60 58 55 55 56 55 55 58 61 62 61 59 58 61 61 59 60
63 63 62 62 62 62 62 63 63 64 64 65 66 66 64 64 65 66 65 65 65 67 66 66 66 65 66 65 66 66 65 66 65 63 63 65 64 64 64 61 61 61 60 58 60 58 58 58 57 55 54 54 54 54 58 61 59 58 58 59 59 60 60
63 63 63 62 63 61 61 62 64 63 64 64 64 64 65 64 65 65 65 66 65 65 65 65 66 65 65 66 64 65 67 64 65 64 65 64 64 62 64 62 62 61 59 59 59 59 59 59 57 55 54 54 55 54 55 57 57 57 57 58 58 58 58
63 63 63 62 62 62 62 63 64 64 64 64 64 65 64 65 64 65 65 65 65 65 65 65 65 66 65 64 65 66 64 64 64 64 64 65 64 64 63 63 63 60 60 59 60 60 59 59 57 56 56 55 55 53 54 55 56 55 56 57 58 58 58
63 62 62 62 62 62 62 63 63 64 64 64 64 65 64 65 65 65 65 65 65 65 65 65 64 65 66 65 65 66 65 64 64 64 64 64 65 64 64 64 62 61 61 63 60 60 58 60 59 57 56 55 56 55 54 53 54 54 55 57 58 58 58
62 63 62 62 62 64 64 63 64 64 64 65 65 65 65 65 65 65 65 65 65 65 64 65 65 64 64 65 66 65 64 64 64 63 64 64 65 64 64 63 63 60 61 60 60 60 58 59 59 58 57 56 55 53 54 54 54 54 55 55 57 58 58
63 62 63 64 65 64 64 63 63 64 64 65 65 64 64 64 65 64 64 65 65 65 65 65 65 64 65 64 64 64 64 63 63 63 64 63 66 64 64 65 63 62 62 64 62 61 60 60 59 59 57 57 56 53 52 53 55 55 54 55 55 57 57
62 62 62 63 64 63 63 64 64 63 64 64 64 64 64 64 64 64 64 64 65 65 65 65 64 64 65 65 64 64 65 64 64 64 63 66 63 64 63 62 63 64 64 64 64 65 64 63 60 59 58 58 57 55 53 53 55 56 55 56 55 55 56
60 61 62 62 63 63 63 63 63 63 63 64 64 64 64 64 64 64 64 63 64 64 64 65 65 65 65 64 65 65 64 65 63 63 65 64 64 64 63 63 63 65 64 63 63 65 64 64 62 59 59 59 58 59 56 54 55 58 56 56 55 54 55
58 59 61 62 62 62 62 62 62 63 63 63 63 64 64 64 63 63 63 63 63 63 64 64 63 64 64 64 64 63 64 64 63 62 63 63 63 63 64 63 63 62 63 63 63 64 65 63 62 59 59 60 59 60 59 56 55 58 56 56 55 55 55
56 57 59 60 62 63 62 62 62 63 62 63 63 63 63 63 62 62 63 62 62 63 63 64 64 64 63 63 63 63 63 63 64 64 63 62 63 63 63 63 62 62 64 64 64 63 61 60 61 61 60 59 59 60 59 58 55 56 58 58 57 55 56
54 55 57 58 60 61 62 63 63 62 62 62 63 62 62 63 63 63 62 62 62 62 63 62 63 64 63 63 63 62 63 63 62 63 61 61 61 63 64 63 61 63 63 62 63 60 59 60 59 59 59 59 58 59 60 57 56 57 57 56 56 55 55
54 55 55 56 57 57 59 61 63 63 62 62 63 63 63 63 63 63 62 63 62 62 62 62 63 63 63 62 62 62 63 63 63 62 62 62 61 61 62 62 63 63 63 63 63 60 60 58 58 57 59 58 58 59 58 57 57 54 56 54 55 54 55
53 53 54 54 55 56 57 58 61 63 63 63 61 63 63 63 63 63 63 62 62 62 62 62 63 62 62 62 61 62 62 63 63 63 62 61 61 62 62 63 63 63 62 62 61 61 59 60 60 59 58 59 59 58 60 60 58 56 54 53 54 50 53
52 52 53 53 54 54 56 57 59 60 62 63 62 63 63 63 63 62 62 62 62 61 62 62 62 62 63 63 62 62 62 62 63 62 61 61 63 61 62 62 62 62 63 62 61 60 59 61 59 59 58 57 57 59 59 59 58 57 55 54 54 52 53
50 51 51 52 53 54 55 56 57 60 61 62 62 63 63 62 62 61 61 61 62 61 61 61 61 62 61 61 62 62 63 63 63 62 62 62 62 60 61 61 62 62 62 60 60 61 61 61 60 59 59 57 55 57 59 60 59 58 55 54 55 51 53
49 49 50 51 52 52 53 55 56 57 60 61 61 62 62 61 62 62 62 62 61 62 61 61 62 62 61 61 62 62 63 64 63 63 62 60 60 61 62 62 61 62 62 61 61 62 62 63 61 61 60 60 57 56 58 59 57 57 56 56 54 53 50
47 47 49 49 50 51 52 53 54 57 58 60 61 61 61 61 61 61 62 62 63 61 61 61 61 61 61 62 62 63 62 61 62 62 62 61 60 61 61 62 62 62 61 61 62 62 62 62 62 62 60 60 58 57 58 58 58 55 56 56 54 53 49
48 47 47 47 48 49 50 51 52 53 56 58 60 61 61 61 61 61 61 62 62 62 62 62 61 62 62 62 62 62 62 63 62 62 61 61 63 63 62 63 62 62 63 62 57 57 56 57 63 59 61 61 61 61 59 57 56 55 54 56 56 54 52
45 46 46 46 46 48 48 49 50 51 52 54 57 59 59 60 61 61 61 60 62 62 62 61 60 55 56 61 62 62 63 63 62 61 61 62 63 62 63 63 62 62 59 59 57 53 52 53 55 60 62 61 64 60 61 60 56 56 56 53 57 57 53
45 45 45 45 46 46 46 48 48 49 50 52 53 55 59 59 60 61 60 60 61 62 62 61 55 50 51 53 60 64 64 63 61 61 61 62 62 62 63 62 63 63 61 59 60 51 51 50 51 53 53 54 53 64 60 63 59 63 61 55 59 57 54
44 45 45 44 44 45 45 46 46 47 48 49 51 53 54 56 59 61 61 60 61 61 61 56 50 48 49 49 53 64 64 61 61 61 61 62 61 62 63 62 63 63 63 63 63 60 55 48 49 48 46 44 44 42 44 58 61 60 60 60 57 57 56
43 43 44 44 44 44 44 44 45 46 46 48 49 49 50 51 53 58 60 59 60 61 62 50 46 47 47 47 48 55 62 62 62 62 61 59 60 61 61 61 62 63 61 60 61 62 61 57 44 42 42 44 45 46 43 42 44 59 59 60 59 55 55
43 43 43 44 44 43 44 44 45 45 46 46 47 47 48 48 50 51 55 58 59 61 60 43 42 44 44 44 46 50 61 61 61 60 60 59 60 61 61 61 61 62 61 61 62 62 62 61 59 58 59 60 59 53 45 48 47 44 50 59 59 56 57
43 43 43 43 44 43 43 44 44 44 45 45 45 45 46 46 47 48 49 52 55 57 52 39 40 41 42 42 42 44 61 61 61 60 60 61 61 61 61 62 62 61 61 61 61 61 61 61 61 61 60 60 59 58 57 56 58 60 60 60 59 59 58
43 42 43 43 43 43 43 43 44 44 44 44 44 44 45 45 45 45 46 48 50 51 51 39 38 40 40 41 42 54 60 61 60 60 60 60 60 60 60 61 60 60 59 60 53 50 54 60 60 58 58 57 54 53 50 42 40 42 53 58 59 58 54
42 42 42 42 42 43 43 43 43 43 43 43 43 43 43 43 43 43 44 44 45 47 48 42 38 40 40 40 43 56 60 57 57 56 57 58 58 58 59 59 59 58 59 59 48 45 47 51 58 56 55 55 53 52 50 47 41 39 39 39 39 39 39
42 42 42 42 41 42 42 42 42 42 42 42 42 42 42 42 42 42 42 43 43 45 45 43 38 38 42 41 47 57 57 56 54 53 52 53 54 52 50 48 52 58 58 55 41 41 43 51 56 55 54 53 52 51 50 49 47 45 40 40 40 40 40
42 42 42 43 43 42 41 41 42 42 42 41 41 41 41 40 41 41 42 42 43 43 43 43 40 38 38 39 49 55 55 52 51 50 49 48 49 49 48 45 43 49 52 46 39 40 41 48 55 55 54 52 51 50 49 48 47 46 46 47 49 49 47
42 42 42 43 43 43 43 42 42 41 41 41 41 41 41 40 40 41 41 41 42 42 42 42 41 38 39 40 43 52 52 51 46 47 47 46 47 47 46 45 41 37 37 37 37 38 39 42 53 53 52 51 50 49 49 49 48 48 48 47 47 47 46
42 42 42 42 42 42 42 43 43 42 41 40 41 41 41 41 41 41 41 41 41 41 41 41 41 38 38 39 40 45 48 49 49 47 46 45 46 45 45 44 43 38 36 37 37 37 38 41 45 53 52 51 51 49 46 47 46 44 46 45 44 44 43
42 42 42 41 41 41 42 42 41 42 41 41 41 40 41 41 41 41 42 42 41 42 42 41 41 39 38 38 39 40 45 44 46 46 45 44 43 43 42 42 41 38 37 37 37 38 38 40 42 51 49 40 39 39 45 44 44 43 43 42 42 41 41
40 41 41 41 40 41 41 41 41 40 40 40 41 41 41 41 42 42 42 42 42 42 42 41 38 39 37 37 38 38 39 41 40 44 42 41 41 41 41 40 39 38 36 37 37 37 38 40 42 43 38 38 38 39 41 44 44 43 41 41 41 41 41
39 39 39 39 39 39 39 40 39 39 39 39 39 39 40 41 42 42 42 42 41 42 42 43 40 37 37 36 36 37 37 37 38 41 42 41 41 41 40 40 39 36 37 37 37 37 36 37 40 37 38 38 39 39 45 43 42 43 41 41 41 40 41

ECMWFFLT1_sfc_dewp_075.txt.gz
Dewpoint
64 65 65 65 66 66 66 66 66 67 66 65 65 64 65 65 67 68 67 68 67 67 65 65 66 67 67 67 66 66 66 64 65 63 63 63 63 61 64 65 65 64 62 61 61 56 56 55 57 60 62 63 62 63 64 61 59 61 61 62 59 59 62
64 64 64 65 64 65 65 65 65 66 66 66 65 64 64 64 65 67 66 65 66 67 65 65 66 67 66 66 66 67 66 66 65 65 64 64 62 61 63 63 62 60 61 61 60 61 61 56 58 59 59 61 62 62 63 63 63 61 62 62 59 58 61
64 64 64 64 63 64 64 65 65 64 65 65 67 67 66 64 64 64 66 67 67 66 66 66 65 66 66 66 66 65 66 65 66 66 65 65 63 63 63 63 62 60 62 60 61 59 60 58 55 54 59 59 59 60 63 63 65 59 60 62 61 58 60
64 64 63 64 63 64 64 64 64 63 64 64 66 67 65 64 64 64 66 67 66 65 65 65 66 67 66 67 66 66 65 65 66 66 66 65 64 63 65 63 60 60 60 58 59 59 59 58 58 57 57 55 57 58 62 62 62 59 59 61 60 59 60
63 62 62 62 62 62 63 62 63 62 63 65 65 66 66 65 65 64 65 66 65 66 65 65 66 68 67 66 66 65 66 66 65 65 65 65 66 64 65 63 63 64 62 61 60 59 59 58 56 56 56 56 57 57 59 64 62 59 58 58 58 59 59
62 62 62 62 62 62 62 62 63 62 62 64 64 65 65 65 65 65 65 65 65 65 66 67 67 67 67 65 65 65 65 64 65 65 65 66 66 64 64 65 65 63 62 63 63 63 61 59 58 55 53 57 58 56 57 58 60 57 56 58 57 58 57
63 63 63 62 62 63 63 64 64 66 65 65 64 64 65 65 65 65 65 65 65 65 65 66 66 66 66 65 65 65 65 65 65 64 65 65 66 65 65 64 64 63 65 65 63 63 59 59 58 55 55 54 54 56 57 58 59 57 56 56 57 56 57
62 62 63 62 62 62 63 64 65 65 64 65 64 64 64 65 65 66 65 65 65 65 65 66 66 65 65 64 65 65 66 65 65 66 66 65 64 65 65 65 65 64 64 65 62 61 59 59 57 56 56 55 54 56 56 57 56 55 54 55 56 56 57
61 61 62 63 63 64 65 63 65 66 65 66 65 65 65 65 65 65 65 65 64 65 65 65 64 64 64 66 66 66 64 64 64 64 65 64 65 65 65 64 64 64 64 63 63 65 63 59 58 58 57 55 56 52 54 53 54 52 54 54 54 56 56
59 59 61 63 64 64 64 64 65 66 66 65 64 63 66 64 64 65 65 65 64 65 65 65 65 65 65 65 66 66 64 64 65 64 64 64 65 64 64 64 64 64 65 65 63 62 62 61 60 59 58 55 55 54 53 53 54 53 54 54 53 55 58
57 58 59 60 62 63 63 63 64 64 65 65 64 64 64 63 64 64 64 64 65 65 65 65 65 65 66 66 65 65 65 66 64 64 64 64 64 65 63 63 65 65 64 63 63 65 63 63 61 59 60 59 56 56 54 52 54 55 57 55 55 54 56
56 57 57 58 59 60 62 63 63 63 64 63 63 64 64 63 63 64 65 64 64 64 64 64 65 65 65 64 65 65 64 65 64 65 65 65 64 63 62 64 65 66 65 64 64 66 64 62 62 63 62 59 59 60 58 57 57 57 55 56 55 56 56
54 55 56 57 57 58 59 61 62 63 63 64 64 64 62 63 65 64 65 64 64 63 63 64 65 64 64 64 64 63 64 62 62 63 64 64 64 64 63 63 63 62 65 64 63 62 62 62 63 62 61 61 59 60 59 61 57 57 58 58 56 56 57
54 54 55 56 57 57 57 58 59 61 62 63 63 63 63 62 61 62 64 62 62 62 63 64 64 65 64 64 65 63 63 63 63 62 63 64 63 63 63 62 61 63 64 63 62 62 62 61 62 63 63 62 61 61 60 59 59 55 58 61 60 56 58
53 53 54 55 55 55 56 57 58 59 60 61 63 62 62 62 63 63 62 62 61 61 62 62 63 63 64 64 62 64 63 64 62 62 64 63 63 63 63 62 61 63 63 63 62 62 61 62 60 59 59 60 58 60 62 56 56 58 56 60 58 55 57
52 53 53 54 54 54 55 56 56 58 58 59 61 63 62 62 63 62 63 63 63 63 64 63 63 63 63 62 63 62 64 62 64 63 63 62 61 62 62 62 62 62 63 63 62 62 61 62 60 57 58 60 61 61 57 58 58 56 56 57 59 55 55
52 51 52 52 53 53 54 55 55 56 57 58 59 61 62 61 61 62 62 61 62 63 61 64 64 64 63 63 62 62 62 63 62 61 62 62 62 61 61 62 62 62 62 61 62 65 62 64 63 62 60 61 61 59 59 60 58 58 58 53 55 53 54
51 51 51 51 52 52 53 53 54 54 55 56 58 59 60 61 62 61 63 62 61 62 62 62 62 63 65 64 63 63 62 61 62 62 63 63 63 62 61 61 62 62 62 63 62 62 62 63 60 60 61 60 61 61 61 59 59 58 58 56 56 55 55
49 50 50 50 51 51 52 52 52 53 53 54 56 58 59 60 62 62 61 61 61 61 62 62 62 62 62 62 62 62 62 63 62 62 62 62 62 62 62 61 62 62 61 62 62 62 60 61 60 60 59 60 59 58 60 59 58 58 56 55 56 54 54
49 50 50 49 50 50 50 51 50 50 52 52 53 55 56 58 59 62 62 62 62 62 62 61 62 63 62 62 62 61 62 63 63 61 62 62 63 62 62 62 62 62 61 62 62 61 61 63 61 61 61 61 58 58 60 59 57 57 56 57 56 56 53
48 48 48 48 48 49 48 49 49 50 50 50 51 52 53 54 56 59 61 63 63 62 61 61 61 61 62 62 63 63 62 63 63 63 64 63 63 63 62 63 63 63 62 63 63 63 63 62 62 62 61 62 62 61 59 59 61 58 57 58 56 56 51
47 47 47 47 47 47 47 48 48 48 49 49 50 50 51 52 53 54 56 62 62 62 61 61 62 63 63 63 63 62 62 62 62 62 61 62 61 62 62 62 62 63 63 64 60 61 61 60 64 62 63 62 62 61 61 60 61 61 57 56 60 56 51
45 46 46 46 46 46 46 47 47 47 47 48 48 49 49 50 50 51 52 55 60 62 61 62 60 55 54 62 63 62 63 63 62 63 63 62 62 62 61 62 63 61 59 58 55 52 51 53 55 60 63 62 61 61 60 60 59 59 59 58 58 58 57
44 44 45 45 46 45 45 46 46 46 47 47 47 47 48 48 48 49 50 51 53 57 60 61 54 50 49 49 59 63 62 62 62 62 62 60 62 62 61 61 63 62 59 58 57 50 49 48 48 51 52 57 60 62 61 61 60 61 58 59 59 60 60
43 43 44 43 44 44 45 45 45 45 46 46 46 47 47 46 47 47 48 48 50 53 57 53 45 45 47 47 49 59 63 63 60 61 62 61 61 62 62 62 62 63 62 61 61 58 53 48 46 46 46 47 48 47 45 60 62 60 60 58 58 57 57
42 43 43 43 44 44 44 44 44 44 45 46 46 45 45 45 46 46 46 46 47 49 54 43 40 40 40 41 43 50 61 63 62 63 62 61 62 62 62 62 62 62 61 60 61 61 60 56 47 45 44 44 42 43 46 46 47 64 61 59 58 58 58
42 42 43 43 43 43 43 43 44 44 45 45 44 44 45 44 44 44 44 44 45 46 50 44 40 39 39 39 40 43 57 61 63 62 62 61 61 62 62 62 62 61 62 62 63 62 62 61 59 58 58 60 59 49 43 43 44 46 56 61 60 58 59
42 42 42 42 43 42 42 43 43 43 43 43 43 43 43 43 43 43 43 43 43 44 46 42 40 39 38 39 39 41 54 60 62 61 61 61 61 62 61 62 62 62 61 62 62 62 62 61 61 62 61 61 61 60 60 59 59 59 59 61 61 61 61
42 41 42 42 42 42 42 43 43 43 43 43 43 43 43 42 42 42 42 42 43 42 43 41 40 39 38 38 38 47 53 58 60 61 60 60 62 61 61 62 61 62 59 62 55 52 56 63 61 61 61 60 56 54 49 42 40 41 56 63 61 61 55
41 41 41 41 41 42 42 43 43 42 42 42 42 42 42 42 42 41 41 42 42 41 42 41 39 38 38 38 40 48 52 57 60 61 62 62 62 62 58 60 59 61 62 62 52 47 49 51 60 59 58 58 56 54 52 49 41 40 40 41 40 40 40
40 40 40 40 41 42 42 42 42 43 42 41 41 41 42 41 41 42 41 41 41 41 41 41 39 38 37 38 39 47 53 57 59 60 60 59 58 53 50 47 55 60 60 59 45 48 48 53 57 59 57 55 54 52 51 51 50 46 40 40 40 39 40
39 39 39 40 41 41 41 41 41 42 42 42 42 41 41 41 41 41 42 41 42 41 40 40 39 37 37 38 41 49 54 58 59 58 56 56 55 54 51 46 43 48 56 47 41 43 41 49 54 56 55 55 53 51 50 51 50 50 50 50 50 51 50
39 38 38 39 39 40 41 41 40 40 41 40 41 41 41 41 41 41 41 41 41 41 40 39 39 37 37 38 39 46 55 55 54 53 52 54 52 49 48 46 44 37 38 38 38 38 39 40 55 56 56 55 52 50 49 49 50 50 50 50 49 49 49
38 38 38 38 38 39 39 40 40 39 39 39 41 41 41 41 41 41 41 41 41 41 41 39 39 37 37 37 38 41 50 51 51 50 48 46 46 45 45 44 44 39 38 38 39 39 40 41 47 56 55 54 53 49 47 50 51 46 49 48 47 47 46
39 39 38 38 38 38 37 38 39 39 38 38 39 40 40 40 40 40 41 41 41 42 42 42 40 39 37 37 37 37 42 44 45 47 45 43 43 42 43 42 42 39 37 38 39 39 40 41 42 46 45 40 40 42 49 48 48 46 45 44 43 42 42
38 38 38 38 37 37 37 37 38 38 39 38 38 38 39 39 39 39 40 40 41 41 42 42 40 40 39 37 37 37 37 39 38 44 44 42 42 42 43 43 41 38 37 37 38 39 39 39 41 41 38 39 39 40 43 45 44 44 44 42 43 42 40
37 37 37 36 36 37 37 36 36 37 37 37 36 36 37 38 38 38 38 39 40 40 41 42 41 40 40 38 38 37 37 37 37 41 41 40 40 41 41 42 40 37 37 37 37 37 37 39 40 38 39 40 42 44 49 50 48 47 45 41 41 41 41

ECMWFFLT1_sfc_dewp_078.txt.gz
Dewpoint
66 66 67 67 68 68 67 67 67 68 68 67 67 66 66 66 66 67 66 66 67 68 67 66 66 66 66 65 66 66 65 65 64 63 62 63 61 62 63 63 62 64 64 63 62 59 57 57 59 62 63 63 63 62 61 61 60 61 62 63 63 63 63
64 64 64 65 66 67 67 67 67 67 68 68 68 67 67 66 65 67 67 67 67 65 66 66 66 66 65 65 65 65 64 64 64 64 63 63 63 61 61 62 62 63 63 63 62 61 60 57 57 58 59 62 62 63 62 63 61 62 62 62 62 62 62
64 64 64 64 65 65 65 67 66 65 65 66 68 67 66 66 65 65 67 66 66 66 66 66 65 65 64 64 64 65 64 64 65 64 63 64 64 64 63 62 61 62 61 60 61 61 61 60 57 57 59 59 58 60 62 63 63 61 61 62 62 63 63
63 63 62 63 63 63 63 64 67 66 65 66 67 67 67 66 65 65 66 66 66 66 66 65 65 65 65 65 65 65 65 64 64 64 63 63 63 63 63 63 62 62 60 60 59 60 60 58 57 59 60 60 59 59 61 62 62 60 60 62 61 61 62
63 63 63 62 62 62 63 64 65 66 67 66 67 67 65 66 64 65 65 65 65 66 66 66 65 65 65 65 65 64 64 65 65 64 64 63 63 63 63 64 64 63 62 61 61 61 60 60 59 60 59 59 60 58 61 62 62 60 60 61 60 60 61
61 61 62 62 63 63 63 63 63 63 64 65 65 65 66 66 65 65 65 64 65 65 65 65 65 65 65 65 64 64 65 65 65 64 64 63 63 63 63 64 64 63 63 63 63 62 62 62 60 57 57 60 57 57 59 61 61 60 59 60 59 59 59
59 60 60 60 61 63 63 63 63 64 64 65 65 66 66 65 65 65 65 65 65 64 65 65 65 65 65 65 64 64 63 65 65 65 65 64 64 64 64 64 63 63 64 64 63 64 62 62 60 59 58 58 59 59 57 60 60 59 59 59 59 58 59
58 58 59 60 61 61 63 63 64 63 63 64 64 66 65 65 64 64 64 64 65 65 65 65 65 65 65 65 65 65 64 64 64 64 64 65 64 64 64 64 63 64 63 63 63 62 62 63 61 60 59 56 57 57 56 58 58 58 57 57 58 57 58
57 57 58 59 59 60 60 61 63 64 63 64 65 64 66 66 65 64 63 64 64 65 65 65 65 65 65 65 64 64 64 64 64 64 64 64 64 64 64 64 63 63 64 64 63 63 62 62 61 61 60 59 55 55 57 56 58 57 57 55 56 56 57
57 56 57 57 58 58 59 60 61 62 63 63 64 65 65 65 65 65 64 64 64 64 64 64 64 64 65 65 64 64 63 64 64 64 63 64 64 64 64 64 64 64 63 64 63 64 64 64 63 62 61 59 58 56 55 54 56 56 56 55 54 56 57
56 56 56 56 56 56 57 58 58 59 59 61 62 63 63 64 65 64 63 64 64 64 64 64 63 63 64 64 63 64 64 64 64 63 64 64 64 64 64 64 64 63 63 63 64 64 63 62 62 61 61 60 59 58 56 54 54 55 55 56 55 55 57
54 54 55 55 56 56 55 56 56 57 58 59 60 62 63 62 63 64 64 63 63 63 63 63 64 64 63 63 63 63 63 63 63 63 63 63 64 64 64 64 64 64 64 64 64 64 62 62 62 62 62 62 60 59 58 56 55 57 56 56 56 58 57
52 53 54 54 54 54 54 55 55 56 57 58 59 60 61 62 62 62 63 63 63 63 63 63 64 64 63 64 63 63 64 64 64 63 63 63 63 64 63 63 63 63 64 64 64 64 63 63 64 62 61 61 61 60 61 59 57 56 62 59 57 58 58
53 52 53 54 54 54 54 54 55 56 56 57 57 57 58 60 62 62 62 62 62 62 63 63 64 63 63 63 64 64 64 63 63 63 63 63 64 63 63 62 62 63 64 64 64 63 63 63 63 61 60 60 60 61 61 59 58 57 58 61 61 58 58
52 51 52 52 52 52 52 54 54 54 54 54 55 56 56 58 60 62 62 62 61 62 62 62 63 63 63 63 62 63 63 63 62 62 62 62 63 63 63 62 62 63 63 63 63 63 62 62 63 61 61 61 60 61 61 58 59 57 56 59 60 62 62
50 51 51 51 51 51 51 52 52 52 52 53 53 54 55 56 57 58 59 62 62 62 62 61 63 63 62 62 61 62 63 62 62 62 62 62 62 63 63 62 62 62 63 62 63 63 63 62 63 63 62 63 61 60 60 59 60 57 57 58 59 58 57
50 50 50 50 50 50 50 50 51 51 51 51 51 52 54 54 55 55 57 59 61 61 62 62 61 62 63 62 62 62 63 62 62 62 62 62 62 63 62 62 62 62 62 62 62 62 63 62 63 62 61 61 61 60 60 61 59 59 58 56 58 57 57
49 49 49 49 50 49 49 49 49 49 49 49 49 50 50 51 52 53 54 55 56 58 61 61 61 61 62 62 62 62 62 62 62 63 62 62 62 62 63 62 62 62 62 62 62 63 62 62 62 61 61 61 61 61 60 60 58 58 58 57 57 57 57
48 48 48 48 49 48 48 48 48 48 48 47 48 49 49 49 50 50 50 51 54 56 57 59 61 61 61 62 62 62 62 63 62 62 62 62 62 62 62 62 62 63 62 62 61 61 62 62 62 61 61 61 61 61 59 60 61 59 58 58 57 57 55
47 47 47 47 47 47 47 47 46 46 47 47 47 47 47 47 48 49 49 49 51 52 54 56 59 53 52 56 60 62 62 61 61 62 62 62 62 62 62 62 62 62 62 62 62 61 61 62 62 61 61 62 61 61 60 60 61 61 61 59 59 57 57
46 46 46 46 46 46 46 46 46 46 46 46 46 46 46 46 46 47 47 47 47 49 52 55 47 47 46 47 49 54 61 61 62 61 62 62 62 62 62 62 62 62 62 62 63 62 61 62 61 60 61 61 62 61 60 61 61 60 59 59 59 58 59
45 45 45 45 45 45 45 45 45 45 45 45 47 45 45 45 45 45 45 46 46 47 49 52 47 45 44 44 46 48 53 60 61 61 61 62 62 62 62 62 62 62 62 63 60 59 60 60 61 60 61 62 61 60 60 60 60 59 59 58 58 58 57
43 44 44 44 44 44 44 44 45 44 44 44 44 45 44 44 44 44 44 44 44 46 46 48 47 43 42 42 43 45 49 54 60 61 60 60 60 61 61 62 62 61 59 59 57 54 52 54 57 60 62 61 60 60 60 60 60 58 58 58 57 57 57
43 43 43 43 43 43 43 43 43 43 44 44 44 44 43 43 43 43 43 43 43 44 45 46 42 40 39 40 41 43 46 50 56 60 61 61 61 61 61 61 61 61 60 58 57 51 51 50 53 53 56 57 58 59 60 60 59 58 57 57 57 57 57
42 42 42 42 42 42 43 43 43 42 43 43 43 44 43 43 43 42 43 42 42 43 43 44 39 39 39 38 40 41 44 49 53 58 61 61 61 60 60 62 62 62 62 61 60 57 53 49 48 48 49 51 52 53 55 60 60 59 58 57 57 56 57
41 41 41 42 42 42 42 42 42 42 42 43 43 42 42 43 42 42 42 42 41 42 42 41 39 38 38 38 38 39 42 47 52 55 59 61 60 60 60 60 60 62 63 60 61 60 59 54 47 46 47 48 47 46 45 45 52 59 59 57 56 57 57
40 40 41 41 42 41 41 42 42 43 43 42 42 42 42 42 42 42 41 41 41 41 41 40 38 38 38 37 37 38 42 47 52 55 57 59 61 61 60 60 60 60 61 61 61 61 60 58 55 54 54 56 55 49 44 42 44 51 56 58 58 58 58
39 40 40 40 41 40 42 42 41 42 42 42 42 42 42 42 42 42 41 41 40 40 41 39 38 38 37 37 37 38 44 50 52 55 57 59 60 61 60 60 60 60 60 61 61 60 61 59 58 58 58 60 58 59 58 57 58 59 60 61 61 60 60
39 38 38 39 39 40 41 41 41 42 42 42 42 42 42 42 42 42 42 41 41 40 40 39 38 38 38 37 37 42 45 49 51 53 56 58 60 60 60 61 60 60 60 60 56 51 55 60 59 59 59 58 55 52 47 42 39 40 44 58 61 60 60
38 38 38 38 38 40 40 40 41 41 41 41 41 41 41 41 41 42 42 41 42 40 40 40 38 38 38 37 38 42 46 49 51 53 55 57 59 60 60 61 60 60 60 60 53 48 48 53 60 59 59 55 55 53 50 48 41 39 40 40 40 41 39
37 38 37 37 38 39 40 40 40 41 40 40 40 40 40 40 40 41 41 42 42 41 40 40 39 38 38 38 39 43 46 49 52 53 56 54 52 51 50 48 55 60 59 59 50 45 46 53 60 59 57 55 53 52 52 52 49 45 40 40 41 41 41
37 37 36 38 39 38 38 39 39 40 40 39 40 40 40 39 39 40 40 41 43 41 41 40 39 38 38 38 39 41 43 43 46 47 48 50 49 48 48 47 43 44 53 55 47 45 45 53 59 58 57 55 53 52 52 52 51 51 51 51 51 52 51
39 38 36 37 38 38 38 38 39 39 39 38 38 39 39 39 39 39 40 39 40 40 40 40 40 38 38 38 38 40 41 41 42 44 44 44 45 44 45 45 43 37 37 38 43 43 44 48 57 57 57 55 53 51 53 52 52 52 52 51 50 49 49
39 38 37 37 38 38 37 37 38 38 38 38 39 39 39 39 39 39 39 39 39 40 40 40 40 38 38 38 38 38 40 40 41 42 42 41 41 41 42 42 42 39 38 38 38 41 45 46 49 58 58 55 53 51 50 52 50 48 48 46 45 45 48
41 41 39 38 38 37 37 37 36 37 37 37 38 38 38 38 38 38 38 39 39 39 40 41 39 39 38 38 37 38 39 40 40 42 41 40 40 40 40 41 41 39 37 38 38 38 40 44 46 53 52 44 43 44 51 50 49 47 46 44 43 45 45
41 41 40 39 37 37 37 36 36 36 37 37 37 37 38 38 37 37 37 38 38 39 39 40 39 39 38 37 37 37 37 38 37 42 41 39 39 39 40 40 41 39 37 37 38 38 39 40 43 44 41 41 42 42 44 47 45 45 43 42 43 42 42
40 40 39 39 37 37 37 37 36 35 35 35 35 35 36 37 37 37 37 37 38 38 39 40 40 39 39 38 37 37 37 37 37 39 41 40 40 40 40 40 39 37 38 38 38 38 38 40 41 39 40 40 42 43 48 47 45 43 42 41 41 41 41

ECMWFFLT1_sfc_dewp_084.txt.gz
Dewpoint
61 61 62 62 63 63 63 63 63 64 65 66 64 64 64 63 63 63 64 63 64 64 64 64 64 64 64 64 64 63 64 63 62 61 61 61 60 60 62 61 61 61 61 60 59 57 56 56 58 61 61 61 61 61 62 62 62 62 62 62 62 61 62
60 60 61 61 61 62 61 62 63 63 63 64 65 65 64 64 64 63 63 63 63 63 63 63 63 63 63 63 63 63 62 62 62 62 61 60 61 60 61 61 61 60 60 60 60 60 56 55 55 58 59 61 60 61 61 62 62 62 62 62 62 62 62
58 59 59 59 59 60 59 60 62 62 62 62 63 63 63 64 64 64 63 63 62 62 63 63 63 63 64 64 63 63 63 62 63 62 62 62 62 62 61 61 60 60 59 59 59 59 59 58 54 57 59 59 58 60 61 61 61 62 61 61 62 62 62
57 57 57 57 57 57 58 58 60 61 61 61 62 62 63 63 63 64 63 62 62 63 63 63 62 63 63 64 64 63 63 63 62 63 62 62 62 62 61 61 60 60 58 57 58 59 58 57 56 55 57 59 59 59 60 61 61 61 61 61 61 62 62
56 56 56 55 55 56 57 57 57 58 58 59 60 61 61 63 64 63 63 62 62 61 62 62 62 63 64 64 64 63 63 64 64 63 62 62 62 62 61 61 61 61 60 59 59 59 58 58 57 56 57 58 59 59 59 61 61 61 61 60 61 61 62
55 55 55 54 55 55 56 55 55 55 56 57 58 59 60 62 63 63 63 62 62 62 62 62 62 63 64 64 64 64 64 64 64 63 63 62 62 61 61 62 61 61 60 61 60 60 60 60 58 56 56 59 58 58 59 60 60 61 61 60 60 61 62
54 54 54 54 54 55 55 54 55 55 55 56 57 58 59 60 61 62 63 63 63 63 62 62 62 62 63 63 64 64 64 64 64 64 63 63 62 62 62 61 61 61 61 61 60 60 59 59 58 57 56 56 56 57 57 59 59 60 60 61 61 61 62
54 54 54 55 54 55 54 54 54 54 55 55 56 56 56 58 58 60 61 62 61 61 62 62 62 62 62 62 62 62 62 62 62 63 63 63 62 62 62 62 62 61 61 62 62 61 61 60 58 58 57 55 55 55 56 57 58 60 59 60 61 60 61
54 53 52 52 52 53 54 53 53 52 53 54 54 54 54 55 56 57 57 58 59 60 60 61 61 62 62 62 61 61 61 62 62 63 62 62 62 62 61 62 62 61 62 62 62 62 62 61 60 59 59 57 55 54 55 55 57 59 60 59 60 60 60
51 51 51 50 50 50 52 52 51 51 51 51 52 52 52 53 53 53 53 55 55 57 57 59 57 57 59 61 61 61 61 62 62 62 61 61 61 62 62 62 62 62 62 62 62 62 62 62 61 61 61 59 57 56 54 55 56 57 59 60 59 59 60
49 49 50 49 49 49 49 49 49 49 48 49 49 50 49 50 50 51 50 50 51 53 56 52 51 51 51 53 54 57 60 62 62 62 62 62 62 62 62 62 62 61 62 62 62 62 62 62 62 61 61 61 60 57 55 54 54 56 57 59 59 58 60
48 48 48 48 48 47 47 47 47 47 47 48 48 47 47 47 47 48 47 48 48 49 52 48 47 47 48 50 51 52 52 54 59 61 62 62 62 62 62 62 62 62 62 62 62 62 62 62 61 62 61 61 60 58 57 56 53 55 57 57 59 59 59
48 47 47 47 46 47 47 47 46 46 46 47 46 46 46 46 46 46 46 46 46 47 48 46 45 45 46 47 47 48 49 50 52 55 60 61 62 62 62 61 62 62 62 62 62 62 62 62 62 62 61 60 60 59 59 57 55 54 57 58 58 59 59
46 46 46 47 46 46 46 47 46 46 45 45 45 44 45 45 45 45 45 45 45 46 44 42 44 44 43 43 43 45 46 47 48 51 54 58 61 61 61 61 61 61 62 62 62 62 62 62 62 62 61 61 60 60 59 58 56 55 56 57 58 58 58
46 46 45 45 45 45 45 45 45 45 44 44 44 44 44 44 44 44 43 43 44 45 43 41 41 41 41 41 41 42 43 43 44 46 50 52 56 61 62 61 61 61 62 62 62 62 62 62 62 61 61 61 60 60 60 58 57 57 56 56 56 58 59
45 45 45 44 44 44 45 45 44 43 43 43 44 44 43 43 43 42 42 42 43 44 42 40 40 40 40 40 40 40 41 41 42 44 46 49 52 56 60 61 61 61 62 61 61 62 62 62 62 61 61 61 60 60 61 60 58 57 56 56 57 58 58
44 44 43 44 44 44 44 44 45 43 43 43 43 43 43 42 42 42 41 41 42 43 42 40 40 40 40 40 40 40 40 41 41 42 43 45 49 52 56 60 60 61 61 61 61 61 61 62 61 61 61 61 61 60 60 60 60 58 57 56 57 58 59
43 43 42 42 42 43 43 44 44 43 43 43 43 42 42 42 41 40 41 41 41 41 40 40 40 40 40 40 40 40 40 40 41 41 42 44 48 50 53 57 60 60 60 61 61 61 61 61 61 61 61 61 61 60 60 60 60 60 57 57 57 59 59
43 43 42 41 41 42 42 43 43 43 43 42 43 43 42 41 41 40 40 40 40 40 40 40 40 39 39 39 39 40 40 40 41 41 42 43 45 47 50 54 58 61 61 60 60 61 61 61 61 61 61 61 61 61 60 60 60 59 59 58 57 56 58
43 43 42 42 42 42 41 41 41 42 43 43 43 42 42 41 41 41 40 40 40 40 40 40 39 39 39 39 39 39 40 40 41 41 42 42 43 45 49 52 56 60 61 61 61 60 61 61 61 61 61 61 61 60 59 59 59 59 59 58 57 57 58
43 44 43 43 42 42 42 41 41 41 42 42 42 42 42 41 41 41 41 41 41 41 40 39 39 39 38 38 39 39 40 41 41 41 42 43 44 44 47 50 54 58 61 61 61 60 61 61 61 60 61 61 61 60 59 59 59 59 58 58 57 56 57
41 42 42 42 42 42 42 41 41 40 40 41 43 42 42 42 41 41 40 41 40 41 40 39 40 39 38 38 39 39 40 41 41 42 42 43 44 46 47 49 52 56 60 61 58 58 58 58 61 60 61 61 61 61 60 59 59 59 58 58 57 57 57
40 40 40 40 41 42 42 42 40 40 40 40 41 42 41 41 41 40 40 40 40 41 40 40 41 40 40 39 39 39 41 41 42 43 44 44 45 47 48 50 52 54 54 55 55 53 52 52 55 60 61 61 61 61 60 59 58 58 58 57 57 56 56
40 39 38 39 39 40 42 42 40 40 40 40 41 40 40 39 39 40 40 39 39 40 40 40 39 38 38 39 39 39 40 40 41 43 43 44 45 47 48 49 51 54 55 56 57 52 50 50 49 50 53 55 58 61 60 59 59 58 57 57 57 56 56
40 39 38 38 38 39 40 41 40 39 39 40 40 40 39 39 39 39 39 39 39 39 39 40 38 38 38 38 39 40 39 40 41 42 42 43 43 45 45 46 47 49 51 54 56 59 56 51 48 47 47 49 50 50 52 58 59 58 58 57 56 56 56
39 39 39 38 38 38 38 40 40 39 39 40 39 39 39 39 38 38 38 38 38 38 38 39 38 38 38 37 38 39 39 39 40 41 41 41 42 43 43 44 45 46 47 48 50 53 59 59 52 48 48 48 48 48 47 47 51 58 59 58 57 57 56
38 38 39 39 38 37 37 38 39 40 39 39 39 39 39 38 39 38 38 38 38 37 37 39 37 38 37 37 37 38 38 39 39 40 40 41 42 42 43 43 43 44 44 44 46 46 46 50 58 58 56 54 54 54 48 46 46 49 54 59 58 57 58
37 37 37 38 38 38 37 37 38 39 39 38 38 38 38 38 39 39 38 38 38 37 37 38 37 37 37 37 37 38 38 38 38 39 40 40 41 41 41 42 43 43 43 42 43 42 42 41 44 53 58 57 56 57 57 55 54 56 56 59 59 59 59
37 37 36 36 36 37 37 37 37 38 38 37 37 37 38 38 38 38 38 38 38 36 37 37 37 37 37 37 38 38 37 37 37 38 39 40 40 40 40 41 42 42 41 40 41 39 39 39 42 48 54 57 57 57 57 55 52 53 57 59 59 59 59
37 36 36 35 34 35 36 37 37 38 37 37 37 37 37 37 38 37 38 38 37 36 36 37 37 37 37 37 38 38 37 37 37 37 38 39 39 39 40 41 41 41 40 39 39 37 37 39 41 47 51 56 57 56 55 53 47 46 48 49 51 51 50
36 36 36 35 35 35 35 36 36 37 36 36 37 37 38 37 37 38 37 37 38 37 36 37 37 37 37 37 38 37 37 37 37 37 37 39 39 39 39 42 43 40 39 39 38 37 37 39 41 46 50 53 56 54 54 50 49 46 42 44 46 48 47
37 36 36 35 36 35 35 35 36 36 36 36 37 37 39 37 36 36 37 37 40 37 36 37 37 37 37 37 37 37 37 37 36 37 37 38 38 38 38 39 41 40 39 38 36 37 37 39 40 44 49 52 55 54 53 50 50 48 49 50 49 49 47
38 37 35 35 36 36 36 35 35 35 36 36 36 36 36 37 36 36 36 36 36 36 36 36 37 37 37 37 37 37 37 37 37 36 37 37 37 38 38 38 39 38 36 36 36 37 37 37 39 42 48 52 54 54 52 51 51 52 52 52 51 52 51
37 37 36 36 36 36 36 35 35 35 35 36 35 36 36 36 36 36 35 35 35 35 36 36 36 36 36 36 36 37 36 37 37 37 36 37 37 37 37 38 38 38 36 36 36 37 37 37 38 41 47 53 55 54 49 51 50 48 51 49 49 49 49
39 38 37 36 35 35 35 36 36 35 35 35 36 36 36 36 36 36 35 34 35 34 36 38 36 36 36 36 36 36 36 36 37 37 37 36 36 37 37 37 37 37 36 36 36 37 37 37 38 43 46 47 48 43 51 51 50 49 49 48 48 47 47
37 38 37 36 35 35 35 36 36 36 35 35 35 35 35 36 35 36 35 34 34 34 34 35 36 36 36 35 35 36 36 36 36 37 36 36 36 36 37 37 37 37 36 36 36 37 37 37 39 39 38 41 42 43 46 49 48 48 47 47 46 46 46
36 36 36 36 36 35 35 35 35 36 35 35 35 35 35 35 35 35 35 34 34 34 33 33 35 35 35 35 35 35 35 36 36 36 37 36 37 37 37 36 36 35 35 36 36 36 37 37 38 37 38 39 41 43 48 47 47 46 44 45 45 45 45

ECMWFFLT1_sfc_dewp_087.txt.gz
Dewpoint
59 60 60 60 60 61 60 62 62 62 63 64 63 63 63 64 64 64 64 63 63 63 64 63 62 62 63 64 64 64 64 63 62 61 61 61 60 60 62 62 62 62 61 60 59 57 56 55 57 61 61 62 62 62 62 61 61 60 59 60 59 59 59
59 59 59 58 58 59 59 60 61 61 61 62 62 62 62 63 64 64 64 63 63 63 63 63 63 63 63 63 63 63 63 63 63 62 61 61 61 60 60 60 61 60 60 60 60 59 57 55 55 58 59 61 62 62 62 62 62 61 60 60 60 59 59
57 57 56 56 57 57 57 57 59 58 58 59 60 61 60 61 62 63 64 63 63 63 63 63 63 63 63 63 63 64 64 63 63 62 62 62 62 61 61 60 60 60 60 59 59 59 58 57 55 56 58 58 58 60 61 61 61 62 61 61 61 60 59
55 55 54 54 55 55 55 55 56 57 57 58 58 59 59 60 61 62 63 63 63 63 63 63 62 62 63 63 64 64 64 63 63 62 62 62 62 62 62 61 61 60 59 58 58 58 58 56 56 56 57 59 59 59 60 61 61 61 62 61 61 61 60
54 54 53 53 54 54 54 54 54 55 55 55 56 57 56 58 59 60 62 61 60 61 61 62 62 63 63 63 63 63 63 64 64 63 63 62 62 62 62 62 61 61 61 60 59 59 58 58 57 56 56 57 59 59 59 60 61 61 61 61 61 61 61
52 52 53 53 54 53 52 52 52 52 52 53 53 53 54 56 57 57 58 59 58 58 59 58 57 57 58 61 62 63 63 63 63 63 62 63 63 62 62 62 62 62 61 61 61 60 60 59 58 57 58 58 57 58 59 59 59 61 61 61 61 61 61
51 51 51 51 51 52 51 50 50 50 50 51 51 52 52 53 53 52 53 53 54 56 54 52 52 52 53 56 59 59 60 62 62 62 62 62 62 62 62 62 62 62 61 61 61 61 60 59 58 58 57 57 58 57 56 58 59 59 60 61 61 61 61
51 50 50 50 50 50 50 49 48 48 48 48 49 50 50 50 50 49 49 49 51 52 50 49 48 49 51 53 54 55 56 56 57 59 61 62 62 62 62 62 62 62 62 62 62 61 60 60 59 59 58 56 56 57 56 58 58 59 59 61 61 61 61
51 49 49 49 48 48 48 48 47 47 47 47 47 48 47 47 48 48 47 47 48 49 48 48 46 47 49 51 51 52 52 52 53 54 58 60 61 62 61 62 62 62 62 62 62 62 61 60 60 60 59 58 56 54 56 56 57 58 60 59 60 61 61
48 47 47 47 47 47 47 47 47 46 46 46 46 47 46 46 46 46 46 46 47 45 44 45 45 45 46 47 47 48 49 49 51 52 54 57 59 61 61 61 61 61 62 62 62 62 62 61 61 60 60 59 58 56 54 54 56 57 59 60 59 60 61
47 47 47 47 47 46 46 46 46 45 45 45 46 46 45 45 45 46 45 46 46 43 43 42 42 42 43 45 44 45 46 47 48 49 51 53 54 57 60 61 62 61 62 62 61 61 61 62 61 61 61 60 60 57 56 55 55 57 57 59 60 59 60
47 47 47 47 46 46 45 45 45 44 44 45 45 44 44 44 44 44 44 45 44 42 41 41 42 41 41 42 42 43 43 44 45 46 48 49 51 54 56 58 60 61 62 62 61 61 61 62 61 62 61 61 60 59 58 57 55 56 58 57 59 60 60
46 46 46 46 45 44 45 44 44 44 44 44 43 43 42 43 43 43 43 44 44 42 41 41 41 40 40 41 41 42 42 42 42 42 44 46 48 50 52 54 56 59 62 62 62 62 61 61 61 61 61 61 60 60 59 58 56 56 58 58 58 60 60
45 45 44 45 45 44 44 45 44 44 43 43 42 42 42 42 42 42 42 42 42 41 40 40 40 40 40 40 40 41 41 41 41 42 43 43 45 47 49 51 52 55 60 61 61 62 62 62 62 61 61 61 60 60 59 58 56 56 57 57 58 59 59
45 45 44 44 45 45 44 43 44 43 43 42 42 41 41 41 42 41 41 41 41 40 40 40 39 39 39 39 39 40 41 40 41 41 42 42 42 43 45 47 50 51 55 60 61 61 62 61 62 61 61 61 60 60 60 58 57 57 56 56 57 59 60
43 43 43 43 43 44 45 44 45 43 43 42 43 42 41 41 41 41 41 41 40 40 39 39 39 39 39 38 39 39 40 40 40 41 41 42 42 43 43 45 47 49 52 54 59 61 61 61 61 61 61 61 60 60 60 60 58 57 56 57 58 58 58
42 41 41 42 42 42 43 44 45 43 43 42 41 42 42 41 41 40 41 40 40 39 39 39 39 39 38 38 38 39 39 40 40 41 41 41 42 43 44 44 45 46 49 51 54 59 61 61 61 61 61 61 61 60 60 60 60 58 58 57 57 58 58
42 41 41 41 41 41 41 42 43 43 43 42 42 41 42 42 41 41 41 40 40 39 39 39 39 38 38 38 38 39 39 40 40 41 42 42 44 43 44 44 45 46 47 49 52 56 60 60 60 61 61 61 61 61 60 60 60 59 58 57 57 58 59
42 42 42 42 41 41 41 41 42 43 43 42 42 41 41 41 42 40 40 40 40 40 39 39 38 38 38 38 38 38 39 40 40 41 42 42 43 43 44 44 45 46 48 49 51 54 56 59 60 60 61 61 61 60 60 60 60 59 59 58 58 57 58
42 42 42 42 42 41 40 41 41 41 42 41 41 40 40 40 41 40 40 40 40 40 39 39 38 38 38 38 38 38 39 39 40 40 42 42 43 44 44 45 46 47 49 50 52 53 54 54 55 58 60 61 61 60 59 59 59 59 59 58 58 58 57
42 43 43 42 42 41 41 40 41 41 41 40 40 39 39 39 39 39 39 39 39 40 38 38 38 38 38 38 38 38 38 39 39 39 40 41 42 43 43 44 44 46 48 50 50 50 51 51 51 53 57 60 60 60 59 59 59 59 58 58 58 57 58
40 41 41 42 42 41 40 40 40 41 41 40 41 40 39 39 39 38 38 38 38 39 38 38 39 38 38 38 38 38 38 39 39 39 40 40 41 41 42 42 43 44 47 50 47 47 47 47 48 49 51 56 59 60 59 59 58 58 58 58 57 58 57
38 39 40 40 41 41 40 40 40 40 40 40 40 41 39 39 38 38 38 37 37 38 38 38 40 40 39 38 38 38 38 38 38 38 39 39 40 40 41 41 43 46 45 46 46 44 43 44 45 45 46 47 52 58 59 59 58 58 57 57 57 57 56
38 38 38 39 40 40 40 40 39 39 39 39 40 40 39 38 38 38 38 37 37 37 37 38 39 37 37 38 38 38 38 38 38 38 38 39 39 40 40 40 41 44 44 45 44 43 42 42 41 41 41 42 44 48 55 59 59 58 57 57 57 57 56
38 38 38 38 38 39 40 39 39 38 39 39 39 38 38 38 38 38 38 37 37 37 37 39 37 37 37 37 38 38 38 37 38 37 37 38 39 39 39 39 40 42 42 43 43 42 42 41 40 40 40 40 41 43 45 51 57 58 58 57 57 57 57
38 38 38 38 38 38 38 38 38 38 38 39 38 37 37 38 38 38 38 37 37 37 36 38 37 37 37 37 37 38 37 37 37 37 37 37 38 39 38 39 40 41 41 44 44 40 40 40 41 40 40 41 42 44 44 43 45 54 59 58 57 57 57
37 37 37 37 37 37 37 37 37 37 38 38 37 37 37 37 37 37 37 37 37 36 36 38 37 37 37 36 36 37 37 37 37 37 37 37 37 38 39 38 39 40 40 40 40 39 39 39 39 39 40 41 43 45 47 46 45 44 48 56 58 57 58
36 35 36 36 36 36 36 35 36 37 37 36 36 36 36 36 36 37 36 37 37 36 36 37 37 36 36 36 36 37 36 37 36 36 36 37 37 38 38 38 39 39 39 39 39 39 38 38 38 39 39 40 42 45 49 53 55 54 53 53 56 59 59
35 34 35 35 35 34 34 34 35 36 37 35 36 36 36 36 36 35 36 36 36 35 35 36 36 36 36 36 37 37 36 36 36 36 36 36 37 37 38 38 38 38 38 38 39 38 38 38 38 38 39 41 42 45 47 51 51 52 55 57 57 58 59
35 34 34 34 34 34 34 35 35 37 35 34 35 35 36 35 35 35 35 35 35 35 34 35 36 36 36 36 37 36 36 36 36 35 36 36 36 37 37 38 38 38 37 37 38 36 36 38 38 38 39 40 42 44 46 50 50 47 47 48 49 50 51
34 34 33 33 33 33 33 33 34 35 33 34 34 35 36 36 35 35 35 34 35 36 34 35 36 36 36 36 37 36 36 35 35 35 35 36 36 36 37 40 41 38 37 37 37 36 36 37 37 38 38 39 40 42 45 48 53 53 47 45 46 46 47
34 33 34 33 34 34 33 34 34 33 34 33 34 34 38 35 35 35 35 35 38 35 33 35 36 35 36 36 37 36 36 35 35 35 35 35 36 36 36 38 39 38 38 37 35 36 36 37 37 37 38 39 40 41 44 47 50 52 52 51 51 51 50
34 34 34 33 34 34 35 33 34 33 33 34 34 34 34 35 34 34 35 34 34 34 33 34 36 35 36 36 36 36 36 35 35 35 35 35 35 35 35 36 37 36 36 35 35 35 36 36 37 38 39 39 40 41 44 47 50 53 52 52 53 53 53
35 34 33 34 34 34 33 33 33 33 33 34 33 34 34 34 34 34 34 34 34 33 34 35 35 35 36 36 36 36 35 35 36 36 35 35 35 35 35 36 36 37 36 35 35 35 36 36 36 39 39 39 39 40 41 44 49 49 52 52 52 52 53
35 36 36 34 34 33 33 34 34 33 33 33 32 33 33 34 33 33 33 33 34 33 35 37 34 35 35 36 36 36 36 36 36 36 35 35 35 35 35 35 36 36 35 35 35 35 36 36 36 39 39 36 37 38 41 43 48 51 51 50 50 49 49
35 36 35 34 33 32 33 33 33 33 33 33 33 32 32 32 32 32 32 32 33 33 33 34 35 35 36 36 36 36 35 36 36 37 35 35 35 35 35 35 36 36 35 35 35 35 36 36 37 36 36 36 37 37 42 47 48 50 48 48 47 46 46
35 34 35 34 34 32 33 33 33 34 32 32 32 32 32 32 32 32 31 31 32 32 32 32 34 35 35 35 36 35 35 35 36 36 36 35 35 35 35 35 35 35 35 35 35 35 35 36 36 35 36 36 37 39 42 43 45 45 44 44 45 44 44